This is the latest recevied weather packets stored in our database for station/object W2GUX. If no packets are shown the sender has not sent any weather packets the latest 1 day(s).
| Time | Temp. | Humidity | Pressure | Rain* | Wind** | Luminosity | Snow |
|---|---|---|---|---|---|---|---|
| 1778004304 | 29.44° C | 26% | 1005.1 hPa | 0 mm | 2.68 m/s, 219° | - | - |
| 1778004003 | 29.44° C | 27% | 1005.1 hPa | 0 mm | 2.24 m/s, 214° | - | - |
| 1778003703 | 28.89° C | 28% | 1005.1 hPa | 0 mm | 1.79 m/s, 205° | - | - |
| 1778003403 | 28.89° C | 27% | 1005.1 hPa | 0 mm | 2.68 m/s, 201° | - | - |
| 1778003103 | 28.33° C | 28% | 1005.2 hPa | 0 mm | 3.13 m/s, 188° | - | - |
| 1778002803 | 28.33° C | 28% | 1005.3 hPa | 0 mm | 3.58 m/s, 186° | - | - |
| 1778002503 | 28.33° C | 27% | 1005.5 hPa | 0 mm | 3.58 m/s, 186° | - | - |
| 1778002204 | 28.33° C | 28% | 1005.6 hPa | 0 mm | 2.68 m/s, 187° | - | - |
| 1778001903 | 28.33° C | 29% | 1005.6 hPa | 0 mm | 3.13 m/s, 186° | - | - |
| 1778001603 | 28.33° C | 30% | 1005.6 hPa | 0 mm | 2.68 m/s, 181° | - | - |
| 1778001303 | 28.33° C | 30% | 1005.6 hPa | 0 mm | 2.24 m/s, 191° | - | - |
| 1778001004 | 27.78° C | 31% | 1005.7 hPa | 0 mm | 2.24 m/s, 204° | - | - |
| 1778000704 | 27.78° C | 33% | 1005.7 hPa | 0 mm | 2.24 m/s, 204° | - | - |
| 1778000403 | 27.22° C | 33% | 1006 hPa | 0 mm | 3.13 m/s, 183° | - | - |
| 1778000103 | 27.22° C | 32% | 1006 hPa | 0 mm | 2.68 m/s, 186° | - | - |
| 1777999803 | 27.78° C | 32% | 1006.1 hPa | 0 mm | 2.68 m/s, 188° | - | - |
| 1777999504 | 27.22° C | 33% | 1006.1 hPa | 0 mm | 2.68 m/s, 187° | - | - |
| 1777999204 | 27.22° C | 32% | 1006.1 hPa | 0 mm | 2.24 m/s, 196° | - | - |
| 1777998903 | 27.22° C | 32% | 1006.2 hPa | 0 mm | 2.24 m/s, 184° | - | - |
| 1777998603 | 27.22° C | 32% | 1006.3 hPa | 0 mm | 1.79 m/s, 203° | - | - |
| 1777998303 | 27.22° C | 33% | 1006.3 hPa | 0 mm | 1.79 m/s, 230° | - | - |
| 1777998004 | 27.22° C | 33% | 1006.5 hPa | 0 mm | 2.24 m/s, 216° | - | - |
| 1777997703 | 26.67° C | 34% | 1006.5 hPa | 0 mm | 2.24 m/s, 214° | - | - |
| 1777997403 | 26.67° C | 35% | 1006.6 hPa | 0 mm | 1.34 m/s, 196° | - | - |
| 1777997103 | 26.67° C | 36% | 1006.6 hPa | 0 mm | 1.34 m/s, 198° | - | - |
* Rain latest hour (hover to see other rain measurements)
** Current wind speed in m/s (hover to see current wind gust speed)